Location: Baia de Cri?
(46.1667°N, 22.7167°E)
Time: 04:47:55
(UTC+00:00)

Gblst 52 Del rocket - Visible Passes

Search period start: 21 April 2026 00:00
Search period end: 01 May 2026 00:00
Orbit: 805 x 1364 km, 51.5° (Epoch: 20 April)

Date Brightness Start Highest point End Pass type
(mag) Time Alt. Az. Time Alt. Az. Time Alt. Az.
21 Apr 5.2 01:08:08 10° WNW 01:15:07 45° SW 01:22:52 10° SSE visible
21 Apr 6.5 03:03:13 10° W 03:05:57 12° WSW 03:08:44 10° SW visible
21 Apr 4.4 18:39:46 10° WSW 18:45:41 84° SSE 18:52:30 10° ENE visible
21 Apr 5.2 20:31:46 10° W 20:37:59 57° N 20:45:11 10° ENE visible
21 Apr 5.0 22:23:56 10° WNW 22:30:42 67° NNE 22:38:30 10° E visible
22 Apr 4.8 00:15:45 10° WNW 00:22:52 61° SW 00:30:54 10° SE visible
22 Apr 6.1 02:08:54 10° W 02:14:03 20° SW 02:19:31 10° SSW visible
22 Apr 4.5 17:47:50 10° SW 17:53:31 61° SE 17:59:58 10° ENE visible
22 Apr 5.0 19:39:23 10° W 19:45:28 62° NNW 19:52:28 10° ENE visible
22 Apr 5.2 21:31:39 10° WNW 21:38:09 59° N 21:45:39 10° E visible
22 Apr 4.7 23:23:29 10° WNW 23:30:32 80° SSW 23:38:35 10° SE visible
23 Apr 6.0 01:15:50 10° WNW 01:25:10 22° SSW 01:28:47 10° S visible
23 Apr 4.7 18:47:04 10° WSW 18:53:01 73° NNW 18:59:52 10° ENE visible
23 Apr 5.2 20:39:19 10° WNW 20:45:35 55° N 20:52:49 10° E visible
23 Apr 4.7 22:31:16 10° WNW 22:38:07 83° NNE 22:40:05 54° ESE visible
24 Apr 5.8 00:23:13 10° WNW 00:40:11 - SSE 00:26:53 29° W visible
24 Apr 4.5 17:54:53 10° WSW 18:00:42 89° SSE 18:07:21 10° ENE visible
24 Apr 5.2 19:46:57 10° W 19:53:01 55° N 20:00:01 10° ENE visible
24 Apr 4.9 21:39:03 10° WNW 21:45:39 69° NNE 21:48:52 36° E visible
24 Apr 5.3 23:30:50 10° WNW 23:35:43 44° W 23:35:43 44° W visible
25 Apr 5.0 18:54:35 10° W 19:00:30 59° NNW 19:07:18 10° ENE visible
25 Apr 5.1 20:46:48 10° WNW 20:53:09 60° NNE 20:58:03 22° E visible
25 Apr 4.7 22:38:34 10° WNW 22:44:54 71° WSW 22:44:54 71° WSW visible
26 Apr 6.7 00:31:02 10° WNW 00:31:47 13° W 00:31:47 13° W visible
26 Apr 4.8 18:02:15 10° WSW 18:08:04 69° NNW 18:14:43 10° ENE visible
26 Apr 5.2 19:54:29 10° WNW 20:00:36 55° N 20:07:23 11° E visible
26 Apr 4.6 21:46:21 10° WNW 21:53:03 87° NNE 21:54:16 65° ESE visible
26 Apr 6.1 23:38:21 10° WNW 23:41:09 23° W 23:41:09 23° W visible
27 Apr 5.2 19:02:09 10° W 19:08:04 54° N 19:14:52 10° ENE visible
27 Apr 4.8 20:54:10 10° WNW 21:00:37 72° NNE 21:03:44 37° E visible
27 Apr 5.4 22:45:56 10° WNW 22:50:37 41° W 22:50:37 41° W visible
28 Apr 5.1 18:09:47 10° W 18:15:34 57° N 18:22:10 10° ENE visible
28 Apr 5.0 20:01:56 10° WNW 20:08:09 61° NNE 20:13:17 20° E visible
28 Apr 4.7 21:53:39 10° WNW 22:00:10 68° SW 22:00:10 68° SW visible
28 Apr 6.7 23:46:19 10° W 23:47:04 12° W 23:47:04 12° W visible
29 Apr 5.1 19:09:40 10° WNW 19:15:39 55° N 19:22:31 10° E visible
29 Apr 4.6 21:01:28 10° WNW 21:07:59 88° SSW 21:09:46 55° ESE visible
29 Apr 6.1 22:53:31 10° WNW 22:56:40 24° W 22:56:40 24° W visible
30 Apr 5.2 18:17:21 10° WNW 18:23:08 53° N 18:29:44 10° ENE visible
30 Apr 4.7 20:09:16 10° WNW 20:15:36 75° NNE 20:19:26 30° ESE visible
30 Apr 5.3 22:01:04 10° WNW 22:06:19 43° WSW 22:06:19 43° WSW visible
